| time (UTC) | temp C | wind direction | speed KPH | gust KPH | rain 1hr cm | rain 24hr cm | rain mn cm | humidity % | barometer mb |
| 20260505000604 | 29 | 141 | 3.2 | 6.4 | 0.00 | 0.56 | 0.56 | 78 | 1010.0 |
| 20260505000304 | 29 | 141 | 3.2 | 6.4 | 0.00 | 0.56 | 0.56 | 78 | 1010.0 |
| 20260505000004 | 30 | 144 | 3.2 | 6.4 | 0.00 | 0.56 | 0.56 | 78 | 1010.0 |
| 20260504235704 | 30 | 143 | 3.2 | 6.4 | 0.00 | 0.56 | 0.56 | 79 | 1010.0 |
| 20260504235425 | 30 | 139 | 3.2 | 4.8 | 0.00 | 0.56 | 0.56 | 79 | 1010.0 |
| 20260504235104 | 30 | 132 | 1.6 | 3.2 | 0.00 | 0.56 | 0.56 | 79 | 1010.0 |
| 20260504234804 | 30 | 123 | 1.6 | 3.2 | 0.00 | 0.56 | 0.56 | 79 | 1010.0 |
| 20260504234504 | 29 | 113 | 1.6 | 3.2 | 0.00 | 0.56 | 0.56 | 79 | 1010.0 |
| 20260504234204 | 29 | 103 | 1.6 | 3.2 | 0.00 | 0.56 | 0.56 | 79 | 1010.0 |
| 20260504233904 | 30 | 115 | 1.6 | 6.4 | 0.00 | 0.56 | 0.56 | 79 | 1010.0 |
| 20260504233604 | 29 | 125 | 1.6 | 6.4 | 0.00 | 0.56 | 0.56 | 79 | 1010.0 |
| 20260504233304 | 30 | 128 | 1.6 | 6.4 | 0.00 | 0.56 | 0.56 | 79 | 1010.0 |
| 20260504233004 | 30 | 136 | 1.6 | 6.4 | 0.00 | 0.56 | 0.56 | 79 | 1010.0 |
| 20260504232704 | 30 | 138 | 1.6 | 4.8 | 0.00 | 0.56 | 0.56 | 79 | 1010.0 |
| 20260504232404 | 30 | 146 | 1.6 | 4.8 | 0.00 | 0.56 | 0.56 | 79 | 1010.0 |
| 20260504232104 | 30 | 139 | 1.6 | 3.2 | 0.00 | 0.56 | 0.56 | 79 | 1010.0 |
| 20260504231804 | 30 | 129 | 1.6 | 3.2 | 0.00 | 0.56 | 0.56 | 79 | 1010.0 |
| 20260504231504 | 30 | 126 | 1.6 | 3.2 | 0.00 | 0.56 | 0.56 | 79 | 1010.0 |
| 20260504231204 | 30 | 114 | 0.0 | 3.2 | 0.00 | 0.56 | 0.56 | 79 | 1010.0 |
| 20260504230904 | 30 | 119 | 0.0 | 3.2 | 0.00 | 0.56 | 0.56 | 79 | 1010.0 |
| 20260504230604 | 30 | 107 | 0.0 | 4.8 | 0.00 | 0.56 | 0.56 | 79 | 1010.0 |
| 20260504230304 | 30 | 111 | 0.0 | 4.8 | 0.00 | 0.56 | 0.56 | 79 | 1010.0 |
| 20260504230004 | 30 | 105 | 1.6 | 4.8 | 0.00 | 0.56 | 0.56 | 79 | 1010.0 |
| 20260504225704 | 30 | 100 | 1.6 | 4.8 | 0.00 | 0.56 | 0.56 | 79 | 1010.0 |
| 20260504225404 | 30 | 101 | 1.6 | 3.2 | 0.00 | 0.56 | 0.56 | 79 | 1010.0 |
| 20260504225104 | 30 | 102 | 1.6 | 3.2 | 0.00 | 0.56 | 0.56 | 79 | 1010.0 |
| 20260504224825 | 30 | 107 | 1.6 | 3.2 | 0.00 | 0.56 | 0.56 | 79 | 1010.0 |
| 20260504224504 | 30 | 109 | 1.6 | 3.2 | 0.00 | 0.56 | 0.56 | 79 | 1010.0 |
| 20260504224204 | 30 | 122 | 1.6 | 4.8 | 0.00 | 0.56 | 0.56 | 79 | 1010.0 |
| 20260504223904 | 30 | 138 | 1.6 | 4.8 | 0.00 | 0.56 | 0.56 | 79 | 1010.0 |
| 20260504223604 | 30 | 155 | 1.6 | 4.8 | 0.00 | 0.56 | 0.56 | 79 | 1010.0 |
| 20260504223325 | 30 | 150 | 1.6 | 4.8 | 0.00 | 0.56 | 0.56 | 79 | 1010.0 |
| 20260504223004 | 30 | 143 | 1.6 | 4.8 | 0.00 | 0.56 | 0.56 | 79 | 1010.0 |
| 20260504222704 | 30 | 124 | 1.6 | 4.8 | 0.00 | 0.56 | 0.56 | 79 | 1010.0 |
| 20260504222404 | 30 | 92 | 1.6 | 3.2 | 0.00 | 0.56 | 0.56 | 79 | 1010.0 |
| 20260504222104 | 30 | 60 | 1.6 | 3.2 | 0.00 | 0.56 | 0.56 | 79 | 1010.0 |
| 20260504221804 | 30 | 38 | 1.6 | 4.8 | 0.00 | 0.56 | 0.56 | 79 | 1010.0 |
| 20260504221504 | 30 | 53 | 1.6 | 4.8 | 0.00 | 0.56 | 0.56 | 79 | 1010.0 |
| 20260504221204 | 30 | 111 | 1.6 | 4.8 | 0.00 | 0.56 | 0.56 | 79 | 1010.0 |
| 20260504220925 | 30 | 145 | 1.6 | 6.4 | 0.00 | 0.56 | 0.56 | 79 | 1010.0 |
| 20260504220604 | 30 | 155 | 1.6 | 6.4 | 0.00 | 0.56 | 0.56 | 79 | 1010.0 |
| 20260504220304 | 30 | 157 | 1.6 | 6.4 | 0.00 | 0.56 | 0.56 | 79 | 1010.0 |
| 20260504220025 | 30 | 148 | 1.6 | 6.4 | 0.00 | 0.56 | 0.56 | 79 | 1010.0 |
| 20260504215704 | 30 | 143 | 1.6 | 3.2 | 0.00 | 0.56 | 0.56 | 79 | 1010.0 |
| 20260504215404 | 30 | 148 | 1.6 | 4.8 | 0.00 | 0.56 | 0.56 | 79 | 1010.0 |
| 20260504215104 | 30 | 145 | 1.6 | 4.8 | 0.00 | 0.56 | 0.56 | 79 | 1010.0 |
| 20260504214825 | 30 | 147 | 3.2 | 4.8 | 0.00 | 0.56 | 0.56 | 79 | 1010.0 |
| 20260504214504 | 30 | 148 | 1.6 | 4.8 | 0.00 | 0.56 | 0.56 | 79 | 1010.0 |
| 20260504214204 | 30 | 147 | 1.6 | 4.8 | 0.00 | 0.56 | 0.56 | 79 | 1010.0 |
| 20260504213904 | 30 | 147 | 1.6 | 4.8 | 0.00 | 0.56 | 0.56 | 79 | 1010.0 |
| 20260504213604 | 30 | 141 | 1.6 | 4.8 | 0.00 | 0.56 | 0.56 | 79 | 1010.0 |
| 20260504213325 | 30 | 144 | 0.0 | 3.2 | 0.00 | 0.56 | 0.56 | 79 | 1010.0 |
| 20260504213004 | 30 | 139 | 0.0 | 4.8 | 0.00 | 0.56 | 0.56 | 79 | 1010.0 |
| 20260504212705 | 30 | 130 | 1.6 | 4.8 | 0.00 | 0.56 | 0.56 | 79 | 1010.0 |
| 20260504212404 | 30 | 129 | 1.6 | 4.8 | 0.00 | 0.56 | 0.56 | 79 | 1010.0 |
| 20260504212104 | 30 | 117 | 1.6 | 4.8 | 0.00 | 0.56 | 0.56 | 79 | 1010.0 |
| 20260504211804 | 30 | 103 | 1.6 | 4.8 | 0.00 | 0.56 | 0.56 | 79 | 1010.0 |
| 20260504211504 | 30 | 78 | 1.6 | 4.8 | 0.00 | 0.56 | 0.56 | 79 | 1010.0 |
| 20260504211204 | 30 | 64 | 1.6 | 4.8 | 0.00 | 0.56 | 0.56 | 78 | 1010.0 |
| 20260504210904 | 30 | 79 | 1.6 | 4.8 | 0.00 | 0.56 | 0.56 | 78 | 1010.0 |
| 20260504210625 | 30 | 86 | 1.6 | 4.8 | 0.00 | 0.56 | 0.56 | 78 | 1010.0 |
| 20260504210304 | 30 | 90 | 1.6 | 4.8 | 0.00 | 0.56 | 0.56 | 78 | 1010.0 |
| 20260504210004 | 30 | 106 | 1.6 | 3.2 | 0.00 | 0.56 | 0.56 | 78 | 1010.0 |
| 20260504205704 | 30 | 105 | 1.6 | 3.2 | 0.00 | 0.56 | 0.56 | 78 | 1010.0 |
| 20260504205404 | 30 | 85 | 1.6 | 4.8 | 0.00 | 0.56 | 0.56 | 78 | 1010.0 |
| 20260504205104 | 30 | 53 | 1.6 | 4.8 | 0.00 | 0.56 | 0.56 | 78 | 1010.0 |
| 20260504204804 | 30 | 57 | 1.6 | 4.8 | 0.00 | 0.56 | 0.56 | 77 | 1010.0 |
| 20260504204525 | 30 | 88 | 1.6 | 4.8 | 0.00 | 0.58 | 0.56 | 77 | 1010.0 |
| 20260504204225 | 30 | 116 | 1.6 | 4.8 | 0.00 | 0.66 | 0.56 | 77 | 1010.0 |
| 20260504203904 | 30 | 124 | 1.6 | 4.8 | 0.00 | 0.69 | 0.56 | 77 | 1010.0 |
| 20260504203604 | 30 | 123 | 1.6 | 4.8 | 0.00 | 0.71 | 0.56 | 77 | 1010.0 |
| 20260504203304 | 30 | 119 | 1.6 | 4.8 | 0.00 | 0.71 | 0.56 | 77 | 1010.0 |
| 20260504203004 | 30 | 115 | 1.6 | 4.8 | 0.00 | 0.71 | 0.56 | 77 | 1010.0 |
| 20260504202704 | 30 | 91 | 1.6 | 6.4 | 0.00 | 0.71 | 0.56 | 77 | 1010.0 |
| 20260504202404 | 30 | 84 | 1.6 | 6.4 | 0.00 | 0.71 | 0.56 | 77 | 1010.0 |
| 20260504202104 | 30 | 128 | 1.6 | 6.4 | 0.00 | 0.71 | 0.56 | 77 | 1010.0 |
| 20260504201804 | 30 | 122 | 1.6 | 6.4 | 0.00 | 0.71 | 0.56 | 77 | 1010.0 |
| 20260504201504 | 30 | 94 | 1.6 | 4.8 | 0.00 | 0.71 | 0.56 | 77 | 1010.0 |
| 20260504201225 | 30 | 107 | 1.6 | 4.8 | 0.00 | 0.71 | 0.56 | 77 | 1010.0 |
| 20260504200904 | 30 | 112 | 1.6 | 4.8 | 0.00 | 0.71 | 0.56 | 77 | 1010.0 |
| 20260504200604 | 30 | 144 | 1.6 | 6.4 | 0.03 | 0.71 | 0.56 | 77 | 1010.0 |
| 20260504200304 | 30 | 143 | 1.6 | 6.4 | 0.05 | 0.71 | 0.56 | 77 | 1010.0 |
| 20260504200004 | 30 | 137 | 1.6 | 6.4 | 0.18 | 0.71 | 0.56 | 77 | 1010.0 |
| 20260504195704 | 30 | 123 | 1.6 | 6.4 | 0.38 | 0.71 | 0.56 | 77 | 1010.0 |
| 20260504195404 | 30 | 94 | 1.6 | 4.8 | 0.51 | 0.71 | 0.56 | 77 | 1010.0 |
| 20260504195105 | 30 | 88 | 1.6 | 6.4 | 0.56 | 0.71 | 0.56 | 77 | 1010.0 |
| 20260504194804 | 30 | 88 | 1.6 | 6.4 | 0.56 | 0.71 | 0.56 | 76 | 1010.0 |
| 20260504194504 | 30 | 96 | 1.6 | 6.4 | 0.56 | 0.71 | 0.56 | 77 | 1010.0 |
| 20260504194204 | 30 | 95 | 3.2 | 6.4 | 0.56 | 0.71 | 0.56 | 77 | 1010.0 |
| 20260504193925 | 30 | 96 | 1.6 | 4.8 | 0.56 | 0.71 | 0.56 | 77 | 1010.0 |
| 20260504193604 | 30 | 99 | 1.6 | 4.8 | 0.56 | 0.71 | 0.56 | 77 | 1010.0 |
| 20260504193304 | 30 | 84 | 1.6 | 4.8 | 0.56 | 0.71 | 0.56 | 77 | 1010.0 |
| 20260504193004 | 30 | 92 | 1.6 | 4.8 | 0.56 | 0.71 | 0.56 | 77 | 1010.0 |
| 20260504192704 | 30 | 109 | 1.6 | 4.8 | 0.56 | 0.71 | 0.56 | 77 | 1010.0 |
| 20260504192404 | 30 | 119 | 1.6 | 6.4 | 0.56 | 0.71 | 0.56 | 76 | 1010.0 |
| 20260504192104 | 30 | 127 | 1.6 | 8.0 | 0.56 | 0.71 | 0.56 | 77 | 1010.0 |
| 20260504191804 | 30 | 107 | 3.2 | 8.0 | 0.56 | 0.71 | 0.56 | 77 | 1010.0 |
| 20260504191504 | 30 | 89 | 1.6 | 8.0 | 0.53 | 0.69 | 0.53 | 77 | 1010.0 |
| 20260504191204 | 30 | 84 | 1.6 | 8.0 | 0.53 | 0.69 | 0.53 | 77 | 1010.0 |
| 20260504190904 | 30 | 91 | 1.6 | 6.4 | 0.53 | 0.69 | 0.53 | 77 | 1010.0 |
| 20260504190604 | 30 | 101 | 1.6 | 9.7 | 0.53 | 0.69 | 0.53 | 76 | 1010.0 |
| 20260504190304 | 30 | 113 | 3.2 | 9.7 | 0.51 | 0.66 | 0.51 | 77 | 1010.0 |
| 20260504190004 | 30 | 117 | 3.2 | 9.7 | 0.36 | 0.51 | 0.36 | 76 | 1010.0 |
| 20260504185704 | 30 | 113 | 4.8 | 9.7 | 0.15 | 0.30 | 0.15 | 76 | 1010.0 |
| 20260504185404 | 30 | 111 | 3.2 | 9.7 | 0.03 | 0.18 | 0.03 | 77 | 1010.0 |
| 20260504185104 | 30 | 110 | 1.6 | 8.0 | 0.00 | 0.15 | 0.00 | 77 | 1010.0 |
| 20260504184804 | 30 | 115 | 1.6 | 6.4 | 0.00 | 0.15 | 0.00 | 77 | 1010.0 |
| 20260504184504 | 30 | 123 | 0.0 | 3.2 | 0.00 | 0.15 | 0.00 | 77 | 1010.0 |
| 20260504184204 | 30 | 149 | 0.0 | 1.6 | 0.00 | 0.15 | 0.00 | 77 | 1010.0 |
| 20260504183904 | 30 | 0 | 0.0 | 1.6 | 0.00 | 0.15 | 0.00 | 77 | 1010.0 |
| 20260504183604 | 30 | 99 | 0.0 | 1.6 | 0.00 | 0.15 | 0.00 | 77 | 1010.0 |
| 20260504183325 | 30 | 99 | 0.0 | 1.6 | 0.00 | 0.15 | 0.00 | 77 | 1010.0 |
| 20260504183004 | 30 | 99 | 0.0 | 3.2 | 0.00 | 0.33 | 0.00 | 77 | 1010.0 |
| 20260504182725 | 30 | 94 | 0.0 | 3.2 | 0.00 | 0.33 | 0.33 | 77 | 1010.0 |
| 20260504182404 | 30 | 100 | 0.0 | 3.2 | 0.00 | 0.33 | 0.33 | 77 | 1010.0 |
| 20260504182125 | 30 | 112 | 0.0 | 3.2 | 0.00 | 0.33 | 0.33 | 77 | 1010.0 |
| 20260504181804 | 30 | 136 | 0.0 | 1.6 | 0.00 | 0.33 | 0.33 | 77 | 1010.0 |
| 20260504181525 | 30 | 136 | 0.0 | 3.2 | 0.00 | 0.33 | 0.33 | 77 | 1010.0 |
| 20260504181204 | 30 | 123 | 0.0 | 3.2 | 0.00 | 0.33 | 0.33 | 77 | 1010.0 |
| 20260504180925 | 30 | 120 | 0.0 | 3.2 | 0.00 | 0.33 | 0.33 | 77 | 1010.0 |
| 20260504180604 | 30 | 117 | 0.0 | 3.2 | 0.00 | 0.33 | 0.33 | 77 | 1010.0 |
| 20260504180304 | 30 | 105 | 0.0 | 3.2 | 0.00 | 0.33 | 0.33 | 77 | 1010.0 |
| 20260504180004 | 30 | 107 | 0.0 | 1.6 | 0.00 | 0.33 | 0.33 | 77 | 1010.0 |
| 20260504175704 | 30 | 99 | 0.0 | 1.6 | 0.00 | 0.33 | 0.33 | 77 | 1010.0 |
| 20260504175404 | 30 | 92 | 0.0 | 1.6 | 0.00 | 0.33 | 0.33 | 76 | 1010.0 |
| 20260504175104 | 30 | 83 | 0.0 | 3.2 | 0.00 | 0.33 | 0.33 | 76 | 1010.0 |
| 20260504174804 | 30 | 73 | 0.0 | 3.2 | 0.00 | 0.33 | 0.33 | 76 | 1010.0 |
| 20260504174504 | 30 | 77 | 0.0 | 3.2 | 0.00 | 0.33 | 0.33 | 77 | 1010.0 |
| 20260504174204 | 30 | 90 | 0.0 | 3.2 | 0.00 | 0.33 | 0.33 | 76 | 1010.0 |
| 20260504173904 | 30 | 88 | 0.0 | 3.2 | 0.00 | 0.33 | 0.33 | 76 | 1010.0 |
| 20260504173625 | 30 | 105 | 1.6 | 3.2 | 0.00 | 0.33 | 0.33 | 76 | 1010.0 |
| 20260504173304 | 30 | 122 | 1.6 | 3.2 | 0.00 | 0.33 | 0.33 | 76 | 1010.0 |
| 20260504173004 | 30 | 106 | 1.6 | 4.8 | 0.00 | 0.33 | 0.33 | 77 | 1010.0 |
| 20260504172725 | 30 | 103 | 0.0 | 4.8 | 0.00 | 0.33 | 0.33 | 76 | 1010.0 |
| 20260504172404 | 30 | 87 | 0.0 | 4.8 | 0.00 | 0.33 | 0.33 | 77 | 1010.0 |
| 20260504172125 | 30 | 98 | 0.0 | 4.8 | 0.00 | 0.33 | 0.33 | 77 | 1010.0 |
| 20260504171805 | 30 | 87 | 0.0 | 3.2 | 0.00 | 0.33 | 0.33 | 77 | 1010.0 |
| 20260504171505 | 30 | 90 | 0.0 | 3.2 | 0.00 | 0.33 | 0.33 | 77 | 1010.0 |
| 20260504171204 | 30 | 90 | 0.0 | 3.2 | 0.00 | 0.33 | 0.33 | 77 | 1010.0 |
| 20260504170925 | 31 | 96 | 1.6 | 4.8 | 0.00 | 0.33 | 0.33 | 77 | 1010.0 |
| 20260504170625 | 31 | 82 | 1.6 | 4.8 | 0.00 | 0.33 | 0.33 | 77 | 1010.0 |
| 20260504170304 | 30 | 73 | 1.6 | 4.8 | 0.00 | 0.33 | 0.33 | 77 | 1010.0 |
| 20260504160304 | 31 | 105 | 0.0 | 3.2 | 0.00 | 0.33 | 0.33 | 76 | 1010.0 |
| 20260504150905 | 31 | 104 | 0.0 | 3.2 | 0.00 | 0.33 | 0.33 | 76 | 1010.0 |
| 20260504150604 | 31 | 60 | 0.0 | 1.6 | 0.00 | 0.33 | 0.33 | 76 | 1010.0 |
| 20260504150304 | 31 | 0 | 0.0 | 0.0 | 0.00 | 0.33 | 0.33 | 76 | 1010.0 |
| 20260504141204 | 31 | 96 | 1.6 | 6.4 | 0.00 | 0.33 | 0.33 | 76 | 1010.0 |
| 20260504140904 | 31 | 91 | 1.6 | 6.4 | 0.00 | 0.33 | 0.33 | 76 | 1010.0 |
| 20260504140604 | 31 | 90 | 1.6 | 4.8 | 0.00 | 0.33 | 0.33 | 76 | 1010.0 |
| 20260504140304 | 31 | 98 | 1.6 | 4.8 | 0.00 | 0.33 | 0.33 | 76 | 1010.0 |
| 20260504130625 | 31 | 108 | 1.6 | 4.8 | 0.00 | 0.33 | 0.33 | 74 | 1010.0 |
| 20260504120304 | 31 | 101 | 3.2 | 9.7 | 0.00 | 0.33 | 0.33 | 74 | 1010.0 |
| 20260504110604 | 31 | 131 | 1.6 | 6.4 | 0.00 | 0.33 | 0.33 | 74 | 1010.0 |
| 20260504110304 | 32 | 123 | 1.6 | 6.4 | 0.00 | 0.33 | 0.33 | 74 | 1010.0 |
| 20260504100604 | 32 | 130 | 1.6 | 4.8 | 0.00 | 0.33 | 0.33 | 74 | 1010.0 |
| 20260504100325 | 32 | 124 | 1.6 | 6.4 | 0.00 | 0.33 | 0.33 | 74 | 1010.0 |
| 20260504081804 | 32 | 168 | 3.2 | 9.7 | 0.00 | 0.33 | 0.33 | 72 | 1010.0 |
| 20260504081526 | 32 | 150 | 3.2 | 9.7 | 0.00 | 0.33 | 0.33 | 72 | 1010.0 |
| 20260504081204 | 32 | 177 | 3.2 | 9.7 | 0.00 | 0.33 | 0.33 | 72 | 1010.0 |
| 20260504080904 | 32 | 154 | 3.2 | 9.7 | 0.00 | 0.33 | 0.33 | 72 | 1010.0 |
| 20260504080625 | 32 | 148 | 1.6 | 6.4 | 0.00 | 0.33 | 0.33 | 72 | 1010.0 |
| 20260504070304 | 31 | 128 | 1.6 | 6.4 | 0.00 | 0.33 | 0.33 | 74 | 1010.0 |
| 20260504050625 | 31 | 162 | 1.6 | 4.8 | 0.00 | 0.33 | 0.33 | 79 | 1010.0 |
| 20260504050304 | 31 | 158 | 1.6 | 4.8 | 0.00 | 0.33 | 0.33 | 79 | 1010.0 |
| 20260504050025 | 31 | 156 | 1.6 | 6.4 | 0.00 | 0.33 | 0.33 | 79 | 1010.0 |
| 20260504045725 | 31 | 145 | 1.6 | 6.4 | 0.00 | 0.33 | 0.33 | 79 | 1010.0 |
| 20260504045404 | 31 | 155 | 1.6 | 6.4 | 0.00 | 0.33 | 0.33 | 79 | 1010.0 |
| 20260504045104 | 31 | 139 | 1.6 | 6.4 | 0.00 | 0.33 | 0.33 | 79 | 1010.0 |
| 20260504044804 | 31 | 131 | 3.2 | 8.0 | 0.00 | 0.33 | 0.33 | 79 | 1010.0 |
| 20260504044525 | 31 | 131 | 3.2 | 8.0 | 0.00 | 0.33 | 0.33 | 79 | 1010.0 |
| 20260504044204 | 31 | 124 | 1.6 | 8.0 | 0.00 | 0.33 | 0.33 | 79 | 1010.0 |
| 20260504043904 | 31 | 141 | 1.6 | 8.0 | 0.00 | 0.33 | 0.33 | 80 | 1010.0 |
| 20260504043604 | 31 | 141 | 1.6 | 6.4 | 0.00 | 0.33 | 0.33 | 80 | 1010.0 |
| 20260504043304 | 31 | 149 | 1.6 | 6.4 | 0.00 | 0.33 | 0.33 | 80 | 1010.0 |
| 20260504043004 | 31 | 137 | 1.6 | 6.4 | 0.00 | 0.33 | 0.33 | 80 | 1010.0 |
| 20260504042704 | 30 | 134 | 1.6 | 6.4 | 0.00 | 0.33 | 0.33 | 80 | 1010.0 |
| 20260504042404 | 30 | 129 | 1.6 | 6.4 | 0.00 | 0.33 | 0.33 | 81 | 1010.0 |
| 20260504042104 | 30 | 129 | 1.6 | 6.4 | 0.00 | 0.33 | 0.33 | 81 | 1010.0 |
| 20260504041804 | 30 | 124 | 1.6 | 6.4 | 0.00 | 0.33 | 0.33 | 81 | 1010.0 |
| 20260504041504 | 30 | 121 | 1.6 | 4.8 | 0.00 | 0.33 | 0.33 | 81 | 1010.0 |
| 20260504041204 | 30 | 121 | 1.6 | 4.8 | 0.00 | 0.33 | 0.33 | 82 | 1010.0 |
| 20260504040904 | 30 | 126 | 1.6 | 6.4 | 0.00 | 0.33 | 0.33 | 82 | 1010.0 |
| 20260504040604 | 30 | 131 | 1.6 | 6.4 | 0.00 | 0.33 | 0.33 | 82 | 1010.0 |
| 20260504040325 | 30 | 108 | 3.2 | 6.4 | 0.00 | 0.33 | 0.33 | 82 | 1010.0 |
| 20260504040004 | 30 | 89 | 3.2 | 6.4 | 0.00 | 0.33 | 0.33 | 82 | 1010.0 |
| 20260504035725 | 30 | 106 | 3.2 | 6.4 | 0.00 | 0.33 | 0.33 | 82 | 1010.0 |
| 20260504035404 | 30 | 118 | 3.2 | 6.4 | 0.00 | 0.33 | 0.33 | 82 | 1010.0 |
| 20260504035125 | 30 | 121 | 1.6 | 6.4 | 0.00 | 0.33 | 0.33 | 82 | 1010.0 |
| 20260504034804 | 30 | 131 | 1.6 | 6.4 | 0.00 | 0.33 | 0.33 | 82 | 1010.0 |
| 20260504034504 | 30 | 323 | 1.6 | 6.4 | 0.00 | 0.33 | 0.33 | 82 | 1010.0 |
| 20260504034204 | 30 | 338 | 1.6 | 6.4 | 0.00 | 0.33 | 0.33 | 82 | 1010.0 |
| 20260504033904 | 30 | 306 | 1.6 | 6.4 | 0.00 | 0.33 | 0.33 | 82 | 1010.0 |
| 20260504033604 | 30 | 147 | 1.6 | 4.8 | 0.00 | 0.33 | 0.33 | 82 | 1010.0 |
| 20260504033304 | 30 | 168 | 1.6 | 4.8 | 0.00 | 0.33 | 0.33 | 82 | 1010.0 |
| 20260504033025 | 30 | 129 | 1.6 | 6.4 | 0.00 | 0.33 | 0.33 | 82 | 1010.0 |
| 20260504032704 | 30 | 154 | 1.6 | 6.4 | 0.00 | 0.33 | 0.33 | 82 | 1010.0 |
| 20260504032404 | 30 | 156 | 1.6 | 6.4 | 0.00 | 0.33 | 0.33 | 83 | 1010.0 |
| 20260504032104 | 30 | 168 | 1.6 | 6.4 | 0.00 | 0.33 | 0.33 | 83 | 1010.0 |
| 20260504031804 | 30 | 167 | 1.6 | 4.8 | 0.00 | 0.33 | 0.33 | 83 | 1010.0 |
| 20260504031504 | 30 | 172 | 1.6 | 4.8 | 0.00 | 0.33 | 0.33 | 83 | 1010.0 |
| 20260504031225 | 30 | 159 | 1.6 | 4.8 | 0.00 | 0.33 | 0.33 | 83 | 1010.0 |
| 20260504030905 | 30 | 174 | 1.6 | 4.8 | 0.00 | 0.33 | 0.33 | 83 | 1010.0 |
| 20260504030625 | 30 | 182 | 1.6 | 4.8 | 0.00 | 0.33 | 0.33 | 83 | 1010.0 |
| 20260504030304 | 30 | 183 | 1.6 | 4.8 | 0.00 | 0.33 | 0.33 | 83 | 1010.0 |
| 20260504030004 | 30 | 190 | 1.6 | 4.8 | 0.00 | 0.33 | 0.33 | 83 | 1010.0 |
| 20260504025704 | 30 | 181 | 1.6 | 4.8 | 0.00 | 0.33 | 0.33 | 83 | 1010.0 |
| 20260504025425 | 29 | 190 | 1.6 | 4.8 | 0.00 | 0.33 | 0.33 | 83 | 1010.0 |
| 20260504025104 | 29 | 201 | 1.6 | 4.8 | 0.00 | 0.33 | 0.33 | 83 | 1010.0 |
| 20260504024804 | 29 | 207 | 1.6 | 4.8 | 0.00 | 0.33 | 0.33 | 83 | 1010.0 |
| 20260504024504 | 30 | 221 | 0.0 | 3.2 | 0.00 | 0.33 | 0.33 | 83 | 1010.0 |
| 20260504024204 | 30 | 197 | 0.0 | 3.2 | 0.00 | 0.33 | 0.33 | 83 | 1010.0 |
| 20260504023905 | 30 | 178 | 0.0 | 3.2 | 0.00 | 0.33 | 0.33 | 83 | 1010.0 |
| 20260504023604 | 30 | 165 | 0.0 | 3.2 | 0.00 | 0.33 | 0.33 | 83 | 1010.0 |
| 20260504023304 | 29 | 151 | 0.0 | 3.2 | 0.00 | 0.33 | 0.33 | 84 | 1010.0 |
| 20260504023025 | 29 | 169 | 0.0 | 4.8 | 0.00 | 0.33 | 0.33 | 83 | 1010.0 |
| 20260504022704 | 29 | 180 | 1.6 | 4.8 | 0.00 | 0.33 | 0.33 | 83 | 1010.0 |
| 20260504022404 | 29 | 175 | 1.6 | 4.8 | 0.00 | 0.33 | 0.33 | 83 | 1010.0 |
| 20260504022104 | 29 | 154 | 1.6 | 4.8 | 0.00 | 0.33 | 0.33 | 83 | 1010.0 |
| 20260504021804 | 29 | 141 | 1.6 | 4.8 | 0.00 | 0.33 | 0.33 | 84 | 1010.0 |
| 20260504021504 | 30 | 129 | 0.0 | 4.8 | 0.00 | 0.33 | 0.33 | 83 | 1010.0 |
| 20260504021225 | 29 | 142 | 0.0 | 4.8 | 0.00 | 0.33 | 0.33 | 83 | 1010.0 |
| 20260504020904 | 29 | 143 | 1.6 | 4.8 | 0.00 | 0.33 | 0.33 | 83 | 1010.0 |
| 20260504020604 | 29 | 134 | 0.0 | 4.8 | 0.00 | 0.33 | 0.33 | 83 | 1010.0 |
| 20260504020304 | 29 | 131 | 0.0 | 4.8 | 0.00 | 0.33 | 0.33 | 83 | 1010.0 |
| 20260504020025 | 29 | 92 | 0.0 | 3.2 | 0.00 | 0.33 | 0.33 | 83 | 1010.0 |
| 20260504015725 | 29 | 98 | 0.0 | 1.6 | 0.00 | 0.33 | 0.33 | 83 | 1010.0 |
| 20260504015404 | 29 | 99 | 0.0 | 3.2 | 0.00 | 0.33 | 0.33 | 82 | 1010.0 |
| 20260504015104 | 29 | 107 | 0.0 | 3.2 | 0.00 | 0.33 | 0.33 | 82 | 1010.0 |
| 20260504014804 | 29 | 103 | 0.0 | 3.2 | 0.00 | 0.33 | 0.33 | 82 | 1010.0 |
| 20260504014525 | 29 | 103 | 0.0 | 3.2 | 0.00 | 0.33 | 0.33 | 82 | 1010.0 |
| 20260504014204 | 29 | 125 | 0.0 | 4.8 | 0.00 | 0.33 | 0.33 | 82 | 1010.0 |
| 20260504013925 | 29 | 160 | 1.6 | 4.8 | 0.00 | 0.33 | 0.33 | 82 | 1010.0 |
| 20260504013604 | 29 | 167 | 1.6 | 4.8 | 0.00 | 0.33 | 0.33 | 83 | 1010.0 |
| 20260504013304 | 29 | 173 | 1.6 | 3.2 | 0.00 | 0.33 | 0.33 | 83 | 1010.0 |
| 20260504013004 | 29 | 140 | 0.0 | 3.2 | 0.00 | 0.33 | 0.33 | 83 | 1010.0 |
| 20260504012704 | 30 | 129 | 0.0 | 3.2 | 0.00 | 0.33 | 0.33 | 82 | 1010.0 |
| 20260504012404 | 29 | 139 | 0.0 | 4.8 | 0.00 | 0.33 | 0.33 | 82 | 1010.0 |
| 20260504012104 | 29 | 150 | 1.6 | 4.8 | 0.00 | 0.33 | 0.33 | 82 | 1010.0 |
| 20260504011804 | 30 | 151 | 1.6 | 6.4 | 0.00 | 0.33 | 0.33 | 81 | 1010.0 |
| 20260504011504 | 30 | 164 | 1.6 | 6.4 | 0.00 | 0.33 | 0.33 | 81 | 1010.0 |
| 20260504011204 | 30 | 171 | 1.6 | 6.4 | 0.00 | 0.33 | 0.33 | 81 | 1010.0 |
| 20260504010904 | 30 | 158 | 1.6 | 6.4 | 0.00 | 0.33 | 0.33 | 81 | 1010.0 |
| 20260504010604 | 30 | 149 | 1.6 | 6.4 | 0.00 | 0.33 | 0.33 | 81 | 1010.0 |
| 20260504010304 | 30 | 133 | 1.6 | 6.4 | 0.00 | 0.33 | 0.33 | 81 | 1010.0 |
| 20260504010004 | 30 | 125 | 1.6 | 6.4 | 0.00 | 0.33 | 0.33 | 81 | 1010.0 |
| 20260504005704 | 30 | 124 | 1.6 | 6.4 | 0.00 | 0.33 | 0.33 | 81 | 1010.0 |
| 20260504005404 | 30 | 103 | 1.6 | 4.8 | 0.00 | 0.33 | 0.33 | 82 | 1010.0 |
| 20260504005104 | 30 | 99 | 1.6 | 4.8 | 0.00 | 0.33 | 0.33 | 81 | 1010.0 |
| 20260504004804 | 30 | 107 | 1.6 | 4.8 | 0.00 | 0.33 | 0.33 | 81 | 1010.0 |
| 20260504004504 | 30 | 104 | 1.6 | 4.8 | 0.00 | 0.33 | 0.33 | 81 | 1010.0 |
| 20260504004225 | 30 | 105 | 1.6 | 4.8 | 0.00 | 0.33 | 0.33 | 81 | 1010.0 |
| 20260504003904 | 30 | 73 | 0.0 | 3.2 | 0.00 | 0.33 | 0.33 | 81 | 1010.0 |
| 20260504003604 | 30 | 82 | 0.0 | 3.2 | 0.00 | 0.33 | 0.33 | 81 | 1010.0 |
| 20260504003304 | 30 | 69 | 0.0 | 3.2 | 0.00 | 0.33 | 0.33 | 81 | 1010.0 |
| 20260504003004 | 30 | 88 | 0.0 | 3.2 | 0.00 | 0.33 | 0.33 | 81 | 1010.0 |
| 20260504002704 | 30 | 92 | 0.0 | 3.2 | 0.00 | 0.33 | 0.33 | 81 | 1010.0 |
| 20260504002404 | 30 | 84 | 0.0 | 4.8 | 0.00 | 0.33 | 0.33 | 81 | 1010.0 |
| 20260504002125 | 30 | 85 | 0.0 | 4.8 | 0.00 | 0.33 | 0.33 | 81 | 1010.0 |
| 20260504001804 | 30 | 76 | 1.6 | 4.8 | 0.00 | 0.33 | 0.33 | 81 | 1010.0 |
| 20260504001504 | 30 | 80 | 1.6 | 4.8 | 0.00 | 0.33 | 0.33 | 81 | 1010.0 |
| 20260504001225 | 30 | 83 | 1.6 | 3.2 | 0.00 | 0.33 | 0.33 | 81 | 1010.0 |
| 20260504000925 | 30 | 72 | 0.0 | 3.2 | 0.00 | 0.33 | 0.33 | 81 | 1010.0 |